{"data":{"norad_id":64444,"epoch":"2026-05-25T02:41:39.236352Z","epoch_age_seconds":76023,"freshness":"FRESH","line1":"1 64444U 25130G   26145.11225968  .00019644  00000+0  59097-3 0  9991","line2":"2 64444  53.1603  92.8602 0001050  86.8761 273.2361 15.34401389 52415","mean_motion":15.34401389,"eccentricity":0.000105,"inclination_deg":53.1603,"raan_deg":92.8602,"arg_perigee_deg":86.8761,"mean_anomaly_deg":273.2361,"bstar":0.00059097,"rev_number":5241,"period_min":93.847673126683,"perigee_km":461.98082401776,"apogee_km":463.41739960124,"semimajor_km":6840.8361118095,"source":"CELESTRAK","updated_at":"2026-05-25T13:38:20.447846Z"}}